Location: City of Moscow
(46.7306°N, 116.9989°W)
Time: 03:10:18
(UTC+00:00)

BREEZE-M DEB (TANK) - Pass Details

Date: 11 December 2025
Orbit: 318 x 16559 km, 49.4° (Epoch: 13 January)

Event Time Altitude Azimuth Distance (km) Brightness Sun altitude
Exits shadow 14:31:04 11° 279° (W) 1,459 4.4 -8.6°
Maximum altitude 14:33:47 62° 2° (N) 729 3.3 -8.2°
Drops below altitude 10° 14:41:37 10° 83° (E) 4,101 8.2 -7.0°
Sets 14:48:09 0° 87° (E) 6,917 9.6 -6.0°
